sat.trackr.live / text

‹ back to catalog

STARLINK-4754

NORAD 53842 · 2022-114AA

PAYLOAD ACTIVE UNKNOWN

§ Identity

Operator
Country
US
Launch date
2022-09-19
Launch site
AFETR
Launch vehicle
Mass (kg)
RCS (m²)

Purposes: comms

External: N2YO · Heavens-Above · Gunter

§ Orbital elements

Epoch: 2026-09-20T22:00:03.000096Z

Period
95.02 min
Inclination
53.1610°
Eccentricity
0.0001689
Mean motion
15.15437113 rev/d
Perigee alt
518.5 km
Apogee alt
520.8 km
Semi-major
6,897.8 km
B*
6.9656e-4
RAAN
136.7345°
Arg perigee
122.0049°
Mean anomaly
63.7586°
Rev number
580

§ Raw data

STARLINK-47541 53842U 22114AA  26263.91670139  .00013040  00000+0  69656-3 0  99992 53842  53.1610 136.7345 0001689 122.0049  63.7586 15.15437113  5800

JSON: /api/v1/satellites/53842 · /tle

For live sub-satellite position, see the globe view (requires WebGL).

§ Visibility from observer

Set your observer location to see the next 7 days of passes ≥ 10°. The values pass through the URL so the page stays shareable.

No JS? Fill the form by hand. The geolocation button needs JavaScript.